www.pogodaiklimat.ru

Погода и климат >> Архив погоды >> Норвегия >> Stromtangen Fyr


ПОГОДА в Stromtangen Fyr

  • Прогноз погоды в Stromtangen Fyr
  • Монитор погоды в Stromtangen Fyr
  • Климат города

АРХИВ ПОГОДЫ в Stromtangen Fyr

Время (UTC), дата Ветер
(напр.,м/с)
 
Видим.   Явления Облачность Т
(С)
Тd
(С)
f
(%)
Тe
(С)
Тes
(С)
Комфортность P
(гПа)
Po
(гПа)
Тmin
(С)
Tmax
(С)
R
(мм)
R24
(мм)
S
(см)
07 11.08 ЮЗ 5
{6}
н/о н/о +16.2 +15 +15 1013.3 1012.1
08 11.08 ЮЗ 6
{7}
н/о н/о +16.3 +15 +15 1013.3 1012.1
09 11.08 ЮЗ 4
{7}
н/о н/о +16.5 +16 +16 1013.3 1012.1
10 11.08 Ю 6
{7}
н/о н/о +16.7 +16 +16 1013.2 1012.0
11 11.08 Ю 6
{7}
н/о н/о +16.0 +15 +15 1012.9 1011.7
12 11.08 Ю 4
{8}
н/о н/о +14.2 +13 +13 1012.9 1011.7
13 11.08 СВ 3
{4}
н/о н/о +14.4 +14 +14 1012.2 1011.0
14 11.08 СВ 3
{5}
н/о н/о +14.8 +15 +15 1011.9 1010.7
15 11.08 СВ 3
{4}
н/о н/о +14.7 +14 +14 1011.1 1009.9
16 11.08 СВ 3
{4}
н/о н/о +14.9 +15 +15 1010.8 1009.6
17 11.08 В 4
{5}
н/о н/о +14.6 +14 +14 1010.5 1009.3
18 11.08 В 4
{5}
н/о н/о +14.6 +14 +14 1010.2 1009.0 +14.0 +16.8
19 11.08 СВ 2
{4}
н/о н/о +14.3 +14 +14 1010.2 1009.0
20 11.08 С 2
{3}
н/о н/о +14.0 +14 +14 1009.9 1008.7
21 11.08 С 2
{2}
н/о н/о +14.1 +14 +14 1009.7 1008.5
22 11.08 С 1
{2}
н/о н/о +14.1 +15 +15 1009.4 1008.2
23 11.08 СВ 2
{4}
н/о н/о +13.9 +14 +14 1009.2 1008.0
00 12.08 ЮВ 2
{4}
н/о н/о +13.8 +14 +14 1008.9 1007.7
01 12.08 н/о
02 12.08 СВ 5
{6}
н/о н/о +13.2 +12 +12 1008.7 1007.5
03 12.08 СВ 2
{6}
н/о н/о +13.1 +13 +13 1008.3 1007.1
04 12.08 С 3 н/о н/о +12.7 1008.5 1007.3
05 12.08 С 3
{5}
н/о н/о +13.2 +13 +13 1008.7 1007.5
06 12.08 С 3
{6}
н/о н/о +14.4 +14 +14 1008.8 1007.6 +12.1 +14.6
07 12.08 С 5
{7}
н/о н/о +15.1 +14 +14 1009.1 1007.9
08 12.08 С 5
{7}
н/о н/о +15.9 +15 +15 1009.3 1008.1
09 12.08
{10}
н/о н/о +14.7 1009.8 1008.6
10 12.08 С 6
{10}
н/о н/о +15.9 +15 +15 1010.2 1009.0
11 12.08 С 6
{10}
н/о н/о +16.6 +16 +16 1010.5 1009.3
12 12.08
{10}
н/о н/о +16.8 1010.7 1009.5
13 12.08 С 7
{10}
н/о н/о +17.4 +17 +17 1010.5 1009.3
14 12.08 С 5
{10}
н/о н/о +18.0 +18 +18 1010.5 1009.3
15 12.08 С 5
{8}
н/о н/о +18.1 +18 +18 1010.5 1009.3
16 12.08 С 4
{9}
н/о н/о +18.2 +18 +18 1010.5 1009.3
17 12.08 В 4
{6}
н/о н/о +17.4 +17 +17 1010.4 1009.2
18 12.08 В 2
{10}
н/о н/о +16.9 +17 +17 1010.7 1009.5 +14.4 +18.7
19 12.08 В 2
{4}
н/о н/о +16.4 +17 +17 1010.7 1009.5
20 12.08 В 2
{3}
н/о н/о +15.9 +16 +16 1010.7 1009.5
21 12.08 В 3
{4}
н/о н/о +15.1 +15 +15 1010.7 1009.5
22 12.08 СВ 2
{4}
н/о н/о +14.1 +14 +14 1010.8 1009.6
23 12.08 СВ 3
{4}
н/о н/о +13.6 +13 +13 1011.0 1009.8
00 13.08 СВ 2
{4}
н/о н/о +13.4 +13 +13 1010.9 1009.7
01 13.08 СВ 3
{5}
н/о н/о +12.6 +12 +12 1010.9 1009.6
02 13.08 СВ 3
{3}
н/о н/о +12.3 +12 +12 1010.9 1009.6
03 13.08 СВ 4
{4}
н/о н/о +11.4 +10 +10 1010.9 1009.6
04 13.08 СВ 4
{5}
н/о н/о +11.0 +10 +10 1011.0 1009.7
05 13.08 СВ 4
{4}
н/о н/о +12.0 +11 +11 1011.0 1009.7
06 13.08 СВ 3
{5}
н/о н/о +12.9 +12 +12 1011.0 1009.7 +10.6 +16.9
07 13.08 СВ 3
{4}
н/о н/о +14.6 +14 +14 1011.2 1010.0
08 13.08 ЮВ 1
{3}
н/о н/о +16.1 +17 +17 1011.2 1010.0
09 13.08 З 2
{3}
н/о н/о +16.1 +16 +16 1011.2 1010.0
10 13.08 СЗ 3
{3}
н/о н/о +17.0 +17 +17 1011.2 1010.0
11 13.08 З 4
{5}
н/о н/о +17.9 +18 +18 1010.7 1009.5
12 13.08 З 5
{6}
н/о н/о +18.4 +18 +18 1010.3 1009.1
13 13.08 СЗ 5
{6}
н/о н/о +19.2 +18 +18 1010.0 1008.8
14 13.08 СЗ 5
{6}
н/о н/о +19.8 +19 +19 1009.6 1008.4
15 13.08 СЗ 5
{6}
н/о н/о +20.3 +19 +19 1009.2 1008.0
16 13.08 СЗ 5
{6}
н/о н/о +20.7 +19 +19 1008.7 1007.5
17 13.08 СЗ 4
{6}
н/о н/о +20.7 +19 +19 1008.3 1007.1
18 13.08 СЗ 3
{6}
н/о н/о +20.4 +19 +19 1008.4 1007.2 +12.9 +21.0
19 13.08 С 2
{4}
н/о н/о +19.0 +19 +19 1008.6 1007.4
20 13.08 ЮВ 4
{7}
н/о н/о +19.0 +18 +18 1008.7 1007.5
21 13.08 ЮВ 2
{4}
н/о н/о +18.4 +19 +19 1008.5 1007.3
22 13.08 СВ 3
{4}
н/о н/о +15.8 +16 +16 1008.7 1007.5
23 13.08 СВ 4
{4}
н/о н/о +15.6 +15 +15 1008.7 1007.5
00 14.08 СВ 4
{7}
н/о н/о +15.1 +14 +14 1008.5 1007.3
01 14.08 СВ 6
{7}
н/о н/о +14.6 +13 +13 1008.3 1007.1
02 14.08 СВ 6
{7}
н/о н/о +14.9 +14 +14 1008.1 1006.9
03 14.08 СВ 6
{7}
н/о н/о +14.9 +14 +14 1007.9 1006.7
04 14.08 СВ 5
{6}
н/о н/о +14.6 +14 +14 1008.0 1006.8
05 14.08 СВ 4
{6}
н/о н/о +14.7 +14 +14 1008.1 1006.9
06 14.08 СВ 5
{7}
н/о н/о +14.9 +14 +14 1008.1 1006.9 +14.5 +20.4
07 14.08 СВ 5
{6}
н/о н/о +14.7 +14 +14 1008.4 1007.2
08 14.08 СВ 5
{7}
н/о н/о +14.5 +13 +13 1008.5 1007.3
09 14.08 СВ 5
{7}
н/о н/о +14.5 +13 +13 1008.6 1007.4
10 14.08 СВ 4
{6}
н/о н/о +15.1 +14 +14 1008.6 1007.4
11 14.08 СВ 6
{7}
н/о н/о +16.2 +15 +15 1008.5 1007.3
12 14.08 СВ 6
{9}
н/о н/о +16.2 +15 +15 1008.6 1007.4
13 14.08 В 5
{9}
н/о н/о +15.9 +15 +15 1008.9 1007.7
14 14.08 СВ 7
{8}
н/о н/о +16.1 +15 +15 1008.8 1007.6
15 14.08 СВ 8
{10}
н/о н/о +15.9 +15 +15 1008.7 1007.5
16 14.08 СВ 7
{10}
н/о н/о +15.8 +15 +15 1008.6 1007.4
17 14.08 СВ 7
{9}
н/о н/о +15.4 +14 +14 1008.6 1007.4
18 14.08 В 7
{10}
н/о н/о +15.0 +14 +14 1008.7 1007.5 +14.3 +16.3
19 14.08 В 6
{9}
н/о н/о +14.8 +14 +14 1009.1 1007.9
20 14.08 СВ 4
{7}
н/о н/о +14.6 +14 +14 1009.5 1008.3
21 14.08 СВ 5
{6}
н/о н/о +14.3 +13 +13 1009.3 1008.1
22 14.08 СВ 4
{5}
н/о н/о +14.1 +13 +13 1009.7 1008.5
23 14.08 С 1
{4}
н/о н/о +14.0 +15 +15 1010.1 1008.9
00 15.08 СВ 2
{9}
н/о н/о +13.8 +14 +14 1009.9 1008.7
01 15.08 СВ 2
{3}
н/о н/о +13.3 +13 +13 1009.9 1008.7
02 15.08 СВ 4
{5}
н/о н/о +13.3 +12 +12 1009.6 1008.4
03 15.08 В 4
{5}
н/о н/о +13.3 +12 +12 1010.0 1008.8
04 15.08 В 3 н/о н/о +13.6 1010.1 1008.9
05 15.08 СВ 2
{4}
н/о н/о +13.3 +13 +13 1010.6 1009.4
06 15.08 СВ 3
{5}
н/о н/о +13.6 +13 +13 1011.0 1009.8 +13.2 +15.1
07 15.08 ЮВ 3
{5}
н/о н/о +14.9 +15 +15 1010.9 1009.7
08 15.08 Ю 3
{4}
н/о н/о +15.9 +16 +16 1011.4 1010.2
09 15.08 ЮВ 4
{5}
н/о н/о +16.4 +16 +16 1011.5 1010.3
10 15.08 В 4
{5}
н/о н/о +17.1 +17 +17 1011.6 1010.4
11 15.08 Ю 7
{8}
н/о н/о +18.1 +17 +17 1011.5 1010.3
12 15.08 Ю 7
{9}
н/о н/о +17.8 +17 +17 1012.0 1010.8
13 15.08 ЮЗ 6
{8}
н/о н/о +18.3 +18 +18 1012.0 1010.8
14 15.08 ЮЗ 8
{9}
н/о н/о +18.2 +17 +17 1012.3 1011.1
15 15.08 ЮЗ 9
{10}
н/о н/о +18.3 +17 +17 1012.1 1010.9
16 15.08 Ю 8
{10}
н/о н/о +18.0 +17 +17 1012.1 1010.9
17 15.08 Ю 8
{10}
н/о н/о +18.1 +17 +17 1012.1 1010.9
18 15.08 ЮЗ 9
{12}
н/о н/о +18.1 +17 +17 1012.1 1010.9 +13.5 +18.5
19 15.08 Ю 10
{12}
н/о н/о +18.0 +17 +17 1012.1 1010.9
20 15.08 Ю 9
{11}
н/о н/о +18.1 +17 +17 1012.0 1010.8
21 15.08 ЮЗ 10
{12}
н/о н/о +18.3 +17 +17 1012.2 1011.0
22 15.08 ЮЗ 11
{14}
н/о н/о +18.3 +17 +17 1012.0 1010.8
23 15.08 ЮЗ 11
{14}
н/о н/о +18.2 +17 +17 1011.7 1010.5
00 16.08 ЮЗ 11
{14}
н/о н/о +18.3 +17 +17 1011.5 1010.3
01 16.08 ЮЗ 12
{13}
н/о н/о +18.4 +17 +17 1011.4 1010.2
02 16.08 ЮЗ 11
{14}
н/о н/о +18.3 +17 +17 1011.3 1010.1
03 16.08 ЮЗ 12
{14}
н/о н/о +18.3 +17 +17 1011.3 1010.1
04 16.08 ЮЗ 10
{15}
н/о н/о +18.4 +17 +17 1011.1 1009.9
05 16.08 ЮЗ 10
{13}
н/о н/о +18.5 +17 +17 1011.0 1009.8
06 16.08 Ю 12
{15}
н/о н/о +18.5 +17 +17 1010.7 1009.5 +18.0 +18.6
07 16.08 Ю 12
{14}
н/о н/о +18.4 +17 +17 1010.5 1009.3
08 16.08 Ю 13
{15}
н/о н/о +18.6 +17 +17 1010.5 1009.3
09 16.08 Ю 12
{16}
н/о н/о +18.6 +17 +17 1010.5 1009.3
10 16.08 Ю 13
{16}
н/о н/о +18.9 +17 +17 1010.0 1008.8
11 16.08 Ю 13
{17}
н/о н/о +18.8 +17 +17 1010.0 1008.8
12 16.08 Ю 13
{17}
н/о н/о +19.0 +17 +17 1009.9 1008.7
13 16.08 Ю 12
{16}
н/о н/о +19.0 +17 +17 1009.9 1008.7
14 16.08 Ю 12
{14}
н/о н/о +19.1 +17 +17 1009.5 1008.3
15 16.08 Ю 13
{16}
н/о н/о +19.3 +17 +17 1009.1 1007.9
16 16.08 Ю 13
{16}
н/о н/о +19.2 +17 +17 1008.7 1007.5
17 16.08 Ю 12
{14}
н/о н/о +19.2 +17 +17 1008.4 1007.2
18 16.08 Ю 11
{16}
н/о н/о +19.2 +18 +18 1008.0 1006.8 +18.4 +19.4
19 16.08 Ю 12
{14}
н/о н/о +19.2 +17 +17 1007.9 1006.7
20 16.08 Ю 13
{17}
н/о н/о +18.7 +17 +17 1007.8 1006.6
21 16.08 Ю 15
{19}
н/о н/о +18.8 +17 +17 1007.6 1006.4
22 16.08 ЮЗ 13
{20}
н/о н/о +18.1 +17 +17 1008.2 1007.0
23 16.08 ЮЗ 13
{15}
н/о н/о +17.7 +16 +16 1008.7 1007.5
00 17.08 ЮЗ 11
{20}
н/о н/о +17.7 +16 +16 1009.0 1007.8
01 17.08 ЮЗ 11
{14}
н/о н/о +17.6 +16 +16 1009.4 1008.2
02 17.08 Ю 10
{13}
н/о н/о +17.8 +17 +17 1009.1 1007.9
03 17.08 Ю 12
{14}
н/о н/о +17.6 +16 +16 1009.1 1007.9
04 17.08 ЮЗ 11
{15}
н/о н/о +17.5 +16 +16 1009.3 1008.1
05 17.08 ЮЗ 10
{13}
н/о н/о +17.5 +16 +16 1009.7 1008.5
06 17.08 ЮЗ 9
{15}
н/о н/о +17.3 +16 +16 1010.5 1009.3 +16.7 +19.2
07 17.08 ЮЗ 9
{12}
н/о н/о +16.9 +16 +16 1010.6 1009.4
08 17.08 ЮЗ 10
{12}
н/о н/о +17.2 +16 +16 1011.1 1009.9
09 17.08 ЮЗ 10
{12}
н/о н/о +17.3 +16 +16 1011.8 1010.6
10 17.08 ЮЗ 10
{13}
н/о н/о +17.6 +16 +16 1011.9 1010.7
11 17.08 ЮЗ 10
{12}
н/о н/о +17.7 +16 +16 1012.0 1010.8
12 17.08 ЮЗ 12
{14}
н/о н/о +17.6 +16 +16 1012.3 1011.1
13 17.08 ЮЗ 13
{14}
н/о н/о +17.9 +16 +16 1012.0 1010.8
14 17.08 ЮЗ 12
{16}
н/о н/о +18.0 +17 +17 1011.9 1010.7
15 17.08 ЮЗ 12
{15}
н/о н/о +17.9 +16 +16 1012.0 1010.8
16 17.08 ЮЗ 12
{14}
н/о н/о +18.0 +17 +17 1012.1 1010.9
17 17.08 ЮЗ 13
{15}
н/о н/о +17.6 +16 +16 1012.0 1010.8
18 17.08 ЮЗ 12
{16}
н/о н/о +17.8 +16 +16 1011.9 1010.7 +16.8 +18.2
19 17.08 ЮЗ 12
{15}
н/о н/о +17.8 +16 +16 1012.0 1010.8
20 17.08 ЮЗ 12
{15}
н/о н/о +17.8 +16 +16 1012.3 1011.1
21 17.08 ЮЗ 11
{14}
н/о н/о +17.7 +16 +16 1012.4 1011.2
22 17.08 ЮЗ 12
{14}
н/о н/о +17.5 +16 +16 1012.6 1011.4
23 17.08 ЮЗ 11
{14}
н/о н/о +17.3 +16 +16 1013.1 1011.9
00 18.08 ЮЗ 10
{15}
н/о н/о +17.2 +16 +16 1012.9 1011.7
01 18.08 ЮЗ 10
{13}
н/о н/о +17.1 +16 +16 1013.0 1011.8
02 18.08 ЮЗ 10
{13}
н/о н/о +17.1 +16 +16 1013.0 1011.8
03 18.08 ЮЗ 9
{12}
н/о н/о +16.7 +15 +15 1012.7 1011.5
04 18.08 ЮЗ 9 н/о н/о +17.1 1012.5 1011.3
05 18.08 ЮЗ 14
{19}
н/о н/о +16.3 +14 +14 1012.6 1011.4

 

Местоположение метеостанции Stromtangen Fyr (Норвегия): широта 59.15 долгота 10.83 высота над уровнем моря 10 м.

В архиве по умолчанию представлена погода в Stromtangen Fyr за последнюю неделю. Архивные данные за месяц целиком и за предыдущие месяцы, начиная с января 2011 года, Вы можете получить, выбрав интересующий диапазон дат из раскрывающегося списка и нажав кнопку "Ввод!".


*Определитесь, кто Вы:
робот инопланетянин человек

Внимание! Время в таблицах - всемирное. Для получения местного времени необходимо прибавить поправку, которая в Stromtangen Fyr равна 1 ч.

Смотрите также архив погоды в соседних городах и на ближайших метеорологических станциях:

Погода в Ferder Fyr (Норвегия) (22 км)
Погода в Sarpsborg (Норвегия) (22 км)
Погода в Rygge (Норвегия) (26 км)
Погода в Melsom (Норвегия) (29 км)
Погода в Nordkoster (Швеция) (29 км)
Погода в Gullholmen (Норвегия) (34 км)
Погода в Svenner Fyr (Норвегия) (44 км)
Погода в As (Норвегия) (57 км)
Погода в Sande-Galleberg (Норвегия) (63 км)
Погода в Vaderoarna (Швеция) (65 км)

Пояснения к столбцам:

Ветер - указаны скорость ветра в м/с - средняя за 10 мин, порывы в срок и между сроками (в фигурных скобках) и направление, откуда дует ветер: С - северный, СВ - северо-восточный, В - восточный, ЮВ - юго-восточный, Ю - южный, ЮЗ - юго-западный, З - западный, СЗ - северо-западный.
Видимость - горизонтальная дальность видимости в метрах или километрах. При видимости от 1 до 10 км при отсутствии осадков обычно наблюдается дымка, при ухудшении видимости до 1 км и менее - туман. В сухую погоду видимость может ухудшаться дымом, пылью или мглою.
Явления - указаны атмосферные явления, наблюдавшиеся в срок или в последний час перед сроком; фигурными скобками обозначены явления, наблюдавшиеся между сроками (за 1-3 часа до срока); квадратными скобками обозначены град или гололедные отложения с указанием их диаметра в мм.
Облачность - указаны через наклонную черту общая и нижняя облачность в баллах и высота нижней границы облаков в метрах; квадратными скобками обозначены формы облаков: Ci - перистые, Cs - перисто-слоистые, Cc - перисто-кучевые, Ac - высококучевые, As - высокослоистые, Sc - слоисто-кучевые, Ns - слоисто-дождевые, Cu - кучевые, Cb - кучево-дождевые. Подробнее классификацию облаков см. в Атласе облаков (PDF).
T - Температура воздуха - температура, измеренная на высоте 2 м над землей.
Td - Температура точки росы - температура, при понижении до которой содержащийся в воздухе водяной пар достигнет насыщения.
f - Относительная влажность воздуха - влажноcть воздуха, измеренная на высоте 2 м над землей.
Te - Эффективная температура - температура, которую ощущает одетый по сезону человек в тени. Характеристика душности погоды. При расчете учитывается влияние влажности воздуха и скорости ветра на теплоощущения человека.
Tes - Эффективная температура на солнце - температура, которую ощущает человек, с поправкой на солнечный нагрев. Характеристика знойности погоды. Зависит от высоты солнца над горизонтом, облачности и скорости ветра. Ночью, в пасмурную погоду, а также при ветре 12 м/с и более поправка равна нулю.
P - Атмосферное давление - приведенное к уровню моря атмосферное давление.
Po - Атмосферное давление - измеренное на уровне метеостанции атмосферное давление.
Tmin - Минимальная температура - минимум температуры воздуха на высоте 2 м над землей.
Tmax - Максимальная температура - максимум температуры воздуха на высоте 2 м над землей.
R - Количество осадков - Количество выпавших осадков за период времени, мм. При наведении курсора мыши на число - период времени, за который выпало указанное количество осадков.
R24 - Количество осадков - Количество выпавших осадков за 24 часа, мм.
S - Снежный покров - Высота снежного покрова, см. При наведении курсора мыши на число - состояние снежного покрова и степень покрытия местности в баллах.